User: anonymous   Login
Location: Hickory_CSC
(35.7330°N, 81.3330°W)
Time: 00:18:12
(UTC-04:00)
Language:

Cosmos 1356 Rocket - Orbit

View from above orbital plane
View from above orbital plane
View from above satellite
View from above satellite

Ground track
Ground track

The orbit data is extracted from the following two-line orbital elements,

1 13154U 82039B   17146.58059468 +.00000296 +00000-0 +22614-4 0  9996
2 13154 081.1846 254.8459 0040261 003.8015 356.3501 14.98311911900225
Epoch (UTC): 26 May 2017 13:56:03
Eccentricity: 0.0040261
inclination: 81.1846°
perigee height: 544 km
apogee height: 600 km
right ascension of ascending node: 254.8459°
argument of perigee: 3.8015°
revolutions per day: 14.98311911
mean anomaly at epoch: 356.3501°
orbit number at epoch: 90022

The dashed part of the orbit path shows where the satellite is in the earth's shadow,  

DLR